Hourly Data Report for July 14, 2016

OTTAWA INTL A
ONTARIO

45°19'00.000" N
75°40'00.000" W
114.90 m
6106001
71628
YOW

Download Data

Hourly Data (July 2016)
Hourly Data Report for July 14, 2016
TIME
LST
Temp Definition
°C
Dew Point Definition
°C
Rel Hum Definition
%
Precip. Amount Definition
mm

Wind Dir Definition
10's deg

Wind Spd Definition
km/h
Visibility Definition
km
Stn Press Definition
kPa
Hmdx Definition


Wind Chill Definition


Weather Definition


00:00 24.1 20.9 82   20 10 24.1 99.55 32   LegendNANA
01:00 23.2 20.4 84   20 6 24.1 99.51 31   Mostly Cloudy
02:00 22.8 20.4 86   16 9 24.1 99.46 31   LegendNANA
03:00 22.5 20.1 86   18 12 24.1 99.42 30   LegendNANA
04:00 22.2 20.2 88   18 16 24.1 99.36 30   Cloudy
05:00 22.4 20.5 89   18 14 24.1 99.32 30   LegendNANA
06:00 22.9 20.7 87   18 14 24.1 99.31 31   LegendNANA
07:00 23.4 20.4 83   19 17 24.1 99.33 31   Cloudy
08:00 23.8 20.4 81   20 20 24.1 99.36 32   LegendNANA
09:00 24.2 20.2 78   20 22 24.1 99.32 32   LegendNANA
10:00 23.4 20.4 83   22 15 24.1 99.30 31   Rain Showers
11:00 21.6 20.8 95   20 26 6.4 99.30 30   Moderate Rain Showers,Fog
12:00 21.6 21.0 96   20 16 24.1 99.26 30   Rain Showers
13:00 23.7 21.8 89   22 19 24.1 99.19 33   Cloudy
14:00 25.3 21.5 79   23 23 24.1 99.13 34   LegendNANA
15:00 26.3 21.2 73   23 26 24.1 99.09 35   LegendNANA
16:00 27.7 21.2 67   23 22 24.1 99.06 36   Mostly Cloudy
17:00 27.6 20.8 66   22 21 24.1 99.03 36   LegendNANA
18:00 26.5 19.0 63   23 23 24.1 99.10 33   LegendNANA
19:00 24.5 18.8 70   22 14 24.1 99.11 31   Mainly Clear
20:00 23.4 19.8 80   20 17 24.1 99.13 31   LegendNANA
21:00 23.0 19.6 81   22 16 16.1 99.22 30   Thunderstorms,Rain Showers
22:00 19.1 17.8 92   21 10 24.1 99.27     Cloudy
23:00 19.6 17.9 90   20 13 24.1 99.26     LegendNANA

Notes on Data Quality.

Legend

  • E = Estimated
  • M = Missing
  • NA = Not Available*
  • [empty] = Indicates an unobserved value
Date modified: